Current weather by "City, St" or "zip code"  
 

Current Conditions: Altoona - Blair County Airport, PA

Overcast


54.0 F

Last Updated on Oct 24 2020, 12:53 pm EDT
Humidity: 69%
Wind Speed: NW 12.7 mph
Barometer 30.06 in
Dewpoint: 44.1 F
Visibility: 10.00 mi
Precip: --
Heat Index: NA
Wind Chill: 50 F
Current conditions at:

Altoona - Blair County Airport, PA (KAOO)

Lat: 40.29994 Lon: 78.3168

Local Radar Image active severe weather and emergency alerts image image weather storm and storm spotter reports image weather observation monitoring service image
Local
Radar
Active
Alerts
Storm Reports Obs
Monitoring

Sign-up For Email & Text Message Weather Alert Notification Services



Advertise Here

Observation History for Altoona - Blair County Airport, PA


Time Wind
(mph)
Vis
(mi)
Weather Precip (in) Temperature (F) Relative
Humidity
Wind
Chill
(F)
Heat
Index
(F)
Pressure
Air Dwpt altimeter
(in)
sea level
(mb)
Rmks
12:53 pm EDT NW 12.7 10.00 Overcast -- 54.0 44.1 69% 50 NA 30.06 1017.8
11:53 am EDT NW 10.4 10.00 Overcast -- 54.0 46.0 75% 51 NA 30.06 1017.9
10:53 am EDT NW 13.8 10.00 Overcast -- 54.0 46.0 75% 50 NA 30.07 1018.0
9:53 am EDT NW 9.2 10.00 Overcast -- 54.0 46.9 77% 51 NA 30.06 1017.6
8:53 am EDT NW 11.5 10.00 Overcast -- 56.0 50.0 81% 53 NA 30.02 1016.4
7:53 am EDT NW 19.6 G 25.3 10.00 Overcast -- 58.0 52.0 81% 54 NA 29.99 1015.2
6:53 am EDT SW 8.1 10.00 Overcast -- 63.0 57.9 84% 63 NA 29.96 1013.9
5:53 am EDT S 6.9 10.00 Overcast Trace 62.0 57.9 86% 62 NA 29.96 1013.7
4:53 am EDT SW 5.8 10.00 Light Rain 00.02 62.0 57.9 86% 62 NA 29.94 1013.0
3:53 am EDT N 0.0 5.00 Rain Fog/Mist 00.03 60.0 55.9 86% NA NA 29.96 1013.5
2:53 am EDT N 0.0 10.00 A Few Clouds -- 58.0 54.0 87% NA NA 29.94 1013.2
1:53 am EDT N 0.0 10.00 Mostly Cloudy -- 60.0 55.0 84% NA NA 29.96 1013.7
12:53 am EDT S 3.5 10.00 A Few Clouds -- 60.0 54.0 80% NA NA 29.97 1014.3
11:53 pm EDT S 3.5 10.00 Fair -- 61.0 55.0 81% NA NA 29.99 1014.8
10:53 pm EDT N 0.0 10.00 Fair -- 63.0 55.0 76% NA NA 30.00 1015.3
9:53 pm EDT 3.5 10.00 Fair -- 66.0 55.9 70% NA NA 30.00 1015.2
8:53 pm EDT S 5.8 10.00 Fair -- 64.0 55.9 75% NA NA 30.01 1015.8
7:53 pm EDT S 10.4 10.00 Fair -- 68.0 57.0 68% NA NA 30.01 1015.7
6:53 pm EDT S 11.5 G 19.6 10.00 Fair -- 70.0 55.9 61% NA NA 30.01 1015.7
5:53 pm EDT SE 9.2 10.00 Fair -- 72.0 55.9 57% NA NA 30.02 1015.9
4:53 pm EDT S 11.5 10.00 Fair -- 75.0 55.9 52% NA NA 30.04 1016.3
3:53 pm EDT S 10.4 10.00 Fair -- 77.0 55.0 47% NA NA 30.05 1017.0
2:53 pm EDT S 9.2 10.00 Fair -- 77.0 55.9 48% NA NA 30.07 1017.4
1:53 pm EDT SE 10.4 10.00 Fair -- 77.0 54.0 45% NA NA 30.09 1018.1

Regional Weather Observation


Johnstown - Cambria County Airport, PA (KJST)

Fog
45.0 F

Indiana / Stewart Field, PA (KIDI)

Fog/Mist
48.0 F

State College - University Park Airport, PA (KUNV)

Overcast
52.0 F

Latrobe / Westmoreland, PA (KLBE)

Overcast
48.0 F

Clearfield, Clearfield-Lawrence Airport, PA (KFIG)

Overcast
48.0 F

Du Bois - Jefferson County Airport, PA (KDUJ)

Overcast
45.0 F